Starlink 31987

operational
NORAD ID: 60017 Int'l Des: 2024-111 Owner: SPXS Country: US Constellation: starlink
LEOCIRCULAR

About Starlink 31987

Description loading...

Live Position

Loading 3D Globe...

Upcoming Passes

Altitude History

Altitude vs Time

uPlot chart will show altitude changes over time

Two-Line Element Set

1 60017U 24111B 25259.45412895 -.00000616 00000-0 -86738-5 0 9996
2 60017 53.1603 165.1909 0001171 95.6999 264.4136 15.30183076 72315
Epoch: Sep 16, 2025 • Age: 15 hours

Current Status

Altitude 475.4 km
Velocity 7.63 km/s
Sub-Earth Point 21.44°N, 56.02°W
Launch Date Jun 8, 2024
Age 1.2 years
Type internet

Technical Details

Classification Payload
Mass 730.00 kg
Dry Mass 700.00 kg
Total Mass 730.00 kg
Length 0.30 m
Diameter 4.10 m
Span 29.00 m
Shape Box + pan
Manufacturer SPXS
Bus Type Starlink V2M
Phase Status In Orbit
Owner/State SPXS/US

Large Constellations

Loading constellations...